Wind_Speed
8 7 8 10 11 13 14 15 16 16 16 15 14 12 11 10 10 9 7 6 5 4 3 2 1 2 3 4 6 7 10 12 13 13 14 14 14 14 14 13 12 11 11
7 7 8 9 11 12 13 15 16 17 17 17 16 15 14 13 11 10 9 7 6 5 5 4 2 0 2 4 5 6 7 9 11 12 13 14 14 14 14 14 14 13 12
6 6 7 8 10 11 12 13 14 15 16 17 17 17 16 15 14 13 11 9 8 6 6 5 4 2 1 4 5 5 5 6 8 10 11 12 13 14 14 14 14 15 14
5 6 6 7 8 10 11 12 13 14 15 16 16 17 17 16 16 15 14 12 10 8 6 6 5 4 0 3 5 6 5 5 6 7 9 8 9 10 11 12 13 14 15
3 5 5 6 7 8 9 11 12 12 13 14 15 16 17 17 18 17 16 14 12 10 8 6 6 5 2 1 4 7 6 6 5 5 6 5 6 7 9 10 12 13 14
2 3 4 5 5 6 7 8 10 10 10 10 12 13 15 16 18 18 17 16 15 12 10 9 7 6 4 1 2 5 6 6 5 4 4 3 3 4 6 7 8 10 12
4 3 4 4 4 5 5 6 6 7 7 7 8 9 11 13 15 17 17 16 16 15 13 11 9 7 5 3 0 3 5 5 5 5 4 3 3 2 3 4 4 7 8
7 6 4 4 4 4 4 4 4 4 3 3 3 4 6 8 10 13 14 15 15 15 14 13 11 9 7 5 2 1 3 5 5 5 4 5 5 4 5 5 5 5 5
8 8 6 5 4 4 4 3 4 3 3 1 1 0 1 2 5 7 10 11 11 12 12 12 11 10 8 6 4 2 1 3 5 5 5 6 6 5 6 6 7 7 7
8 9 8 8 7 6 5 5 5 4 4 3 2 2 2 2 2 2 4 6 7 8 9 10 10 10 9 7 5 3 1 2 3 5 7 6 6 6 6 6 6 7 8
7 8 9 9 10 10 9 8 7 7 6 5 4 4 3 4 4 3 3 2 3 4 5 6 7 8 8 7 6 4 2 2 3 6 8 7 7 7 7 6 6 6 7
6 7 8 9 11 11 12 12 11 10 10 9 8 7 6 5 6 6 6 5 4 4 4 4 4 6 6 7 6 5 4 4 4 6 8 7 8 8 7 7 6 6 6
8 8 9 9 10 11 12 13 13 14 14 14 13 12 10 9 9 9 9 9 8 7 6 6 6 6 7 7 7 7 7 7 6 7 10 9 9 10 10 9 9 8 7
10 11 11 11 12 13 13 14 15 16 17 17 17 15 14 13 12 12 12 12 11 11 9 9 10 9 8 9 9 9 9 9 9 10 12 13 13 13 14 14 13 12 11
14 14 14 14 14 15 16 16 16 17 18 19 19 19 18 17 15 15 15 16 15 15 14 13 12 12 11 11 11 10 11 11 12 12 14 15 17 17 18 18 18 18 17
18 18 17 17 17 17 18 19 18 18 19 20 21 21 21 20 19 19 18 18 18 18 17 16 15 15 14 14 13 13 13 13 14 15 16 17 18 19 20 21 22 22 22
23 22 21 20 21 20 19 19 20 20 20 21 22 22 23 24 24 23 21 20 20 19 18 18 18 18 17 16 15 15 15 15 16 16 17 18 19 20 21 22 23 25 26
27 27 26 25 24 24 22 21 21 21 21 22 23 23 24 25 25 25 23 22 21 21 21 21 20 20 18 17 16 16 17 17 18 19 19 20 21 22 23 23 24 25 26
31 31 31 29 27 27 26 24 24 23 22 23 24 24 24 24 24 24 24 25 24 24 24 24 23 21 20 19 18 18 19 20 21 21 22 22 23 23 25 26 26 25 26
36 35 35 34 32 31 30 29 28 28 26 25 25 25 25 25 25 24 25 27 27 27 27 26 24 22 21 20 19 19 21 22 22 22 23 24 24 24 25 26 27 26 25
40 39 38 37 36 35 34 34 33 32 31 29 27 27 27 27 28 27 28 30 30 30 29 27 25 24 22 20 20 20 21 22 23 22 23 25 25 24 25 25 26 26 25
40 40 39 39 38 37 36 35 36 36 34 32 30 29 28 29 30 30 31 31 31 30 30 28 26 24 23 21 20 21 21 22 23 22 22 24 24 23 25 24 25 25 24
37 37 37 37 36 36 36 35 37 37 36 34 32 32 31 31 31 31 31 31 31 30 29 29 27 26 23 22 21 21 23 24 24 23 23 24 24 23 24 25 25 24 23
32 32 32 32 32 33 34 35 36 38 38 37 36 37 36 34 33 32 32 32 31 30 30 30 29 27 25 23 22 23 24 24 25 24 25 24 24 24 24 24 25 24 22
29 29 29 29 30 31 32 34 36 38 39 40 40 41 41 39 37 36 37 36 34 32 31 31 30 29 27 25 24 24 24 25 25 24 25 25 24 24 23 23 24 24 22
31 30 30 30 31 31 33 35 36 37 40 41 42 43 44 42 39 40 40 38 36 34 34 33 32 30 28 25 24 24 25 26 26 25 25 26 25 24 23 23 24 24 23
Wind_Direction
96 101 97 93 86 79 80 82 82 79 76 72 68 65 62 60 59 60 63 67 70 72 73 80 159 221 231 231 221 222 221 219 221 219 220 225 232 236 238 240 241 245 248
96 107 105 100 94 87 85 85 83 83 81 77 73 69 66 62 60 60 63 66 68 68 65 59 55 201 228 226 221 214 216 224 229 231 233 236 239 241 240 242 243 244 246
92 107 113 108 104 95 91 90 88 86 84 79 74 69 65 61 58 57 57 59 60 60 56 53 51 47 212 220 217 209 218 229 232 236 238 240 242 243 241 243 244 244 246
91 102 116 116 113 104 96 95 93 89 85 80 75 70 64 59 56 54 53 52 52 53 54 54 51 46 28 219 215 212 224 236 234 241 241 248 249 246 242 247 248 249 249
110 102 115 121 120 114 105 99 97 94 88 82 77 72 66 61 58 55 54 52 51 50 50 52 50 45 39 229 222 224 233 243 238 236 237 258 264 249 246 253 254 252 252
176 126 121 128 130 126 121 112 103 99 91 82 77 73 68 63 60 57 56 54 53 51 49 46 46 42 38 29 221 224 229 233 227 227 235 256 276 248 242 253 256 255 256
210 185 151 142 143 140 139 136 128 113 100 84 73 69 68 64 60 57 55 54 53 51 48 46 44 41 36 34 58 208 211 217 222 230 242 273 307 286 258 269 278 274 270
216 217 194 174 165 162 162 162 159 149 130 96 70 63 62 60 56 54 54 53 52 51 49 46 44 42 39 35 34 195 205 211 222 238 257 276 297 306 294 286 286 293 289
220 226 224 215 210 203 195 192 190 190 192 210 235 347 38 44 43 44 47 48 49 50 50 48 44 43 42 37 30 20 236 224 228 238 253 266 281 287 288 286 283 283 284
225 229 232 235 238 235 227 220 217 217 215 230 245 250 256 271 307 349 24 38 40 43 48 47 43 40 37 37 34 29 6 236 231 238 252 264 274 279 282 282 283 279 274
236 237 239 242 246 246 244 239 234 234 233 240 248 250 250 253 261 266 284 327 8 21 31 32 31 30 26 25 23 16 340 273 245 244 257 266 271 272 275 278 279 277 271
267 260 254 252 254 254 253 251 246 244 245 245 247 250 252 248 252 263 265 269 283 308 332 342 348 357 0 2 358 346 325 302 275 256 261 266 269 270 272 273 273 272 268
288 283 279 274 272 268 264 262 257 253 250 248 248 249 252 250 253 263 266 265 267 276 289 298 304 313 323 330 334 331 323 314 299 271 269 266 266 269 272 271 269 265 263
282 284 286 289 290 288 283 276 269 263 257 253 251 252 253 255 256 260 264 265 264 267 275 285 292 295 299 302 306 313 314 311 298 282 276 271 268 267 270 272 271 265 260
273 276 281 285 289 292 291 287 281 274 267 261 257 257 258 260 262 263 261 263 264 266 268 274 282 287 288 291 296 302 305 304 299 289 281 276 273 270 269 270 270 269 265
270 272 276 281 284 287 291 292 287 281 276 270 265 264 265 265 266 268 267 264 264 264 267 273 279 284 284 285 288 292 297 299 296 290 284 279 276 275 272 270 269 270 269
272 274 276 279 282 283 286 290 289 285 281 276 272 271 271 270 270 271 270 266 264 263 266 273 279 284 285 284 284 287 292 295 293 290 286 283 281 280 279 276 271 269 268
276 278 279 279 281 282 284 285 287 288 284 280 276 276 276 275 273 273 272 267 264 263 265 272 278 281 282 280 278 282 288 291 290 288 286 284 283 284 284 282 279 274 269
275 277 277 278 279 281 281 283 284 285 284 281 279 278 278 277 276 274 272 268 264 264 268 273 276 278 279 276 275 279 285 288 288 287 285 283 283 285 286 286 284 280 275
272 273 274 276 276 278 279 281 282 282 282 281 279 277 277 276 276 274 272 270 266 265 268 271 274 275 275 274 274 278 283 285 285 286 286 285 284 285 285 285 284 280 277
269 270 271 273 274 275 276 278 278 278 278 278 278 276 274 273 273 274 274 273 272 265 264 269 271 272 270 271 274 277 280 281 282 284 286 287 288 288 287 285 282 281 278
266 267 268 269 271 272 273 274 275 274 274 275 276 275 274 272 272 274 275 276 278 270 263 263 266 268 267 268 271 275 277 279 282 285 285 287 289 289 287 285 282 281 277
262 262 264 266 268 271 273 273 272 270 273 272 272 272 271 271 273 275 278 280 282 276 265 260 262 264 264 265 268 270 273 276 280 283 286 286 287 287 286 285 283 281 277
258 258 259 262 266 270 273 275 273 272 271 271 273 273 273 274 276 281 281 282 285 282 271 261 259 259 258 262 265 267 269 274 278 281 284 285 286 287 286 284 283 281 277
253 254 256 260 265 270 274 276 275 273 271 270 270 273 274 276 276 281 283 282 281 281 273 265 257 254 253 258 263 267 271 275 279 283 284 285 285 285 286 285 282 282 279
252 253 256 260 266 271 274 276 277 274 271 269 269 271 273 277 278 282 283 283 280 281 275 264 256 250 251 255 261 267 272 276 279 282 283 284 285 284 285 283 282 282 280
Height
5906 5906 5906 5906 5906 5906 5905 5904 5903 5902 5901 5900 5899 5898 5897 5896 5896 5895 5894 5894 5894 5894 5894 5895 5896 5897 5897 5898 5899 5901 5902 5904 5906 5908 5909 5910 5912 5913 5914 5915 5915 5916 5917
5908 5907 5908 5908 5908 5908 5907 5907 5906 5905 5904 5903 5902 5901 5899 5898 5897 5896 5895 5895 5895 5895 5895 5895 5896 5896 5897 5898 5899 5900 5901 5903 5905 5907 5908 5909 5910 5911 5912 5913 5914 5915 5916
5909 5909 5909 5909 5909 5909 5909 5908 5908 5907 5906 5905 5904 5903 5901 5900 5899 5898 5897 5896 5896 5896 5896 5896 5896 5896 5897 5897 5899 5900 5901 5903 5904 5905 5906 5907 5908 5909 5910 5911 5913 5913 5914
5910 5910 5910 5910 5910 5911 5910 5910 5910 5909 5908 5907 5906 5905 5904 5902 5901 5899 5898 5898 5897 5897 5897 5896 5896 5896 5896 5897 5898 5899 5901 5902 5903 5904 5905 5905 5906 5907 5909 5910 5911 5912 5913
5912 5911 5911 5911 5911 5911 5911 5911 5911 5911 5910 5910 5909 5908 5906 5905 5903 5902 5900 5899 5899 5898 5898 5897 5897 5897 5896 5897 5897 5899 5900 5901 5903 5904 5905 5905 5906 5907 5908 5909 5910 5910 5911
5912 5912 5912 5912 5912 5912 5912 5912 5912 5912 5912 5912 5911 5910 5909 5907 5905 5904 5903 5901 5900 5900 5899 5898 5898 5898 5897 5897 5897 5898 5899 5901 5902 5903 5904 5904 5905 5906 5907 5908 5908 5909 5910
5912 5912 5912 5912 5912 5912 5912 5912 5912 5913 5913 5913 5913 5912 5911 5910 5908 5907 5905 5904 5903 5901 5901 5900 5899 5898 5898 5898 5897 5898 5899 5900 5902 5903 5904 5905 5906 5906 5907 5907 5908 5908 5908
5911 5911 5912 5912 5912 5912 5912 5913 5913 5913 5913 5913 5913 5913 5912 5911 5910 5909 5908 5906 5905 5904 5903 5902 5901 5900 5899 5899 5899 5899 5899 5901 5902 5904 5905 5905 5906 5906 5906 5907 5908 5908 5908
5910 5911 5911 5912 5912 5913 5913 5913 5913 5913 5913 5913 5913 5913 5913 5913 5912 5911 5910 5908 5907 5906 5905 5904 5903 5902 5901 5900 5900 5900 5900 5901 5902 5904 5905 5905 5905 5905 5906 5906 5907 5907 5908
5909 5910 5911 5911 5911 5912 5912 5913 5913 5913 5913 5913 5913 5913 5913 5913 5912 5912 5911 5910 5909 5908 5907 5905 5904 5903 5902 5902 5901 5901 5901 5902 5903 5904 5904 5904 5905 5905 5905 5905 5906 5907 5907
5909 5909 5910 5910 5910 5911 5911 5912 5912 5912 5912 5912 5912 5912 5912 5912 5912 5912 5911 5910 5910 5909 5908 5907 5906 5905 5904 5903 5902 5902 5901 5902 5902 5903 5903 5903 5904 5904 5904 5905 5905 5906 5906
5908 5908 5908 5909 5909 5910 5910 5910 5911 5911 5911 5911 5911 5911 5911 5911 5911 5911 5911 5910 5910 5909 5908 5907 5906 5905 5905 5904 5903 5902 5901 5901 5902 5902 5902 5903 5903 5903 5903 5904 5904 5905 5905
5908 5908 5908 5907 5907 5908 5908 5908 5908 5909 5909 5909 5909 5909 5909 5910 5910 5909 5909 5909 5909 5908 5908 5907 5906 5905 5905 5904 5903 5902 5901 5901 5901 5901 5901 5902 5902 5902 5902 5903 5904 5904 5904
5906 5906 5906 5906 5905 5906 5906 5905 5906 5906 5906 5906 5906 5907 5907 5907 5908 5908 5908 5907 5907 5907 5907 5906 5905 5905 5904 5903 5902 5901 5900 5900 5900 5900 5899 5900 5901 5901 5902 5902 5903 5903 5903
5903 5903 5903 5903 5903 5903 5903 5903 5903 5903 5903 5903 5904 5904 5905 5904 5905 5905 5905 5905 5905 5905 5904 5904 5904 5903 5903 5902 5901 5900 5899 5898 5898 5897 5897 5898 5898 5899 5899 5900 5901 5901 5902
5900 5900 5900 5900 5900 5900 5900 5899 5900 5899 5900 5900 5900 5901 5901 5901 5902 5902 5902 5902 5901 5901 5901 5901 5901 5901 5900 5899 5899 5898 5897 5896 5895 5895 5895 5895 5895 5895 5896 5896 5897 5898 5899
5895 5896 5896 5896 5896 5896 5896 5896 5896 5896 5896 5896 5897 5897 5897 5898 5898 5898 5898 5898 5897 5897 5898 5898 5898 5897 5897 5897 5896 5895 5895 5894 5893 5892 5892 5891 5891 5891 5891 5892 5893 5893 5894
5891 5891 5892 5892 5892 5892 5892 5892 5891 5892 5892 5892 5892 5892 5893 5893 5893 5893 5894 5894 5893 5893 5893 5893 5894 5894 5893 5893 5892 5892 5891 5890 5889 5888 5888 5888 5888 5887 5887 5887 5887 5888 5889
5885 5886 5885 5886 5887 5887 5887 5888 5887 5887 5888 5888 5888 5887 5887 5888 5888 5889 5889 5889 5889 5889 5889 5888 5889 5889 5889 5888 5888 5888 5887 5886 5885 5884 5884 5883 5883 5883 5882 5882 5882 5882 5882
5879 5879 5879 5880 5881 5881 5882 5882 5882 5882 5882 5882 5883 5882 5882 5882 5882 5883 5883 5883 5883 5883 5883 5883 5884 5884 5884 5883 5884 5883 5883 5882 5880 5880 5879 5878 5878 5878 5877 5876 5875 5875 5876
5870 5871 5872 5873 5873 5874 5875 5876 5876 5875 5875 5876 5877 5876 5876 5876 5876 5877 5877 5876 5876 5877 5877 5878 5878 5878 5878 5878 5878 5878 5878 5877 5875 5875 5874 5872 5872 5872 5871 5870 5870 5869 5869
5861 5862 5863 5864 5865 5866 5867 5868 5868 5867 5867 5868 5869 5869 5868 5868 5869 5870 5870 5869 5869 5869 5870 5871 5872 5872 5873 5873 5873 5872 5872 5872 5870 5870 5869 5867 5866 5866 5865 5864 5864 5864 5863
5852 5853 5854 5855 5856 5857 5858 5858 5858 5855 5856 5858 5859 5859 5860 5860 5861 5862 5862 5862 5862 5861 5862 5863 5865 5866 5867 5867 5867 5867 5866 5866 5865 5864 5863 5862 5861 5861 5860 5858 5858 5858 5858
5843 5844 5846 5847 5848 5849 5850 5850 5850 5848 5847 5848 5848 5849 5850 5851 5853 5854 5854 5854 5854 5854 5854 5855 5857 5858 5860 5860 5860 5860 5860 5860 5859 5858 5857 5856 5856 5855 5854 5853 5852 5852 5853
5834 5836 5838 5839 5840 5841 5842 5842 5842 5842 5842 5841 5840 5840 5840 5841 5843 5845 5846 5847 5846 5846 5847 5848 5849 5850 5852 5853 5853 5853 5853 5853 5852 5851 5850 5850 5850 5849 5849 5848 5847 5846 5847
5826 5828 5830 5832 5833 5833 5834 5833 5833 5834 5834 5833 5833 5833 5832 5832 5834 5836 5838 5838 5838 5838 5839 5840 5841 5842 5844 5845 5846 5846 5846 5846 5845 5844 5844 5843 5843 5843 5843 5842 5842 5841 5841